Regional Weather Roundup
Issued by NWS

Home | Current Version | Previous Version | Graphics & Text | Print | Product List | Glossary On
Versions: 1 2 3 4 5 6 7 8 9 10 11 12 13 14 15 16 17 18 19 20 21 22 23 24 25 26 27 28 29 30 31 32 33 34 35 36 37 38 39 40 41 42 43 44 45 46 47 48 49 50
000
ASUS43 KMKX 052221
RWRWI

WISCONSIN REGIONAL WEATHER ROUNDUP
NATIONAL WEATHER SERVICE MILWAUKEE/SULLIVAN WI
500 PM CDT THU MAY 05 2016

NOTE: "FAIR" INDICATES FEW OR NO CLOUDS BELOW 12,000 FEET WITH NO
SIGNIFICANT WEATHER AND/OR OBSTRUCTIONS TO VISIBILITY.

WIZ001-002-006>008-014>016-023>028-052300-
NORTHWEST WISCONSIN

CITY           SKY/WX    TMP DP  RH WIND       PRES   REMARKS
SUPERIOR ARPT  SUNNY     79  40  24 SW13G23   29.81F
ASHLAND        MOSUNNY   74  37  26 SW10G21   29.86F
HAYWARD        SUNNY     71  38  29 SW9       29.90F
SIREN          SUNNY     73  36  26 SW12      29.91F
CUMBERLAND     MOSUNNY   66  34  30 S12       29.94F
RICE LAKE      SUNNY     68  34  28 SW10      29.95F
CHETEK         MOSUNNY   69  39  34 SW7       29.93F
LADYSMITH      SUNNY     69  38  31 SW8       29.94F
EAU CLAIRE     CLOUDY    69  35  28 SW10G17   29.95F
MENOMONIE      SUNNY     73  37  27 W8        29.94F
NEW RICHMOND   SUNNY     71  36  27 SW9       29.94F
OSCEOLA        SUNNY     74  36  24 SW13      29.95F
$$

WIZ003>005-009-010-017-018-052300-
NORTH CENTRAL WISCONSIN

CITY           SKY/WX    TMP DP  RH WIND       PRES   REMARKS
MANITOWISH WTR CLOUDY    69  38  32 SW10      29.90F
ARBOR VITAE    CLOUDY    69  36  29 SW6       29.91F
WOODRUFF       CLOUDY    69  36  29 SW6       29.91F
RHINELANDER    CLOUDY    69  32  25 SW9       29.93F
EAGLE RIVER    CLOUDY    67  27  21 W7        29.91F
LAND O LAKES   SUNNY     68  29  23 SW6       29.91F
PHILLIPS       SUNNY     67  39  35 SW9       29.92S
TOMAHAWK       CLOUDY    67  33  28 W8        29.93F
MEDFORD        SUNNY     63  38  40 SW6G16    29.95F
MERRILL        CLOUDY    66  36  32 W10       29.94F
$$

WIZ029-030-035-036-043>047-052300-
CENTRAL WISCONSIN

CITY           SKY/WX    TMP DP  RH WIND       PRES   REMARKS
WAUSAU         CLOUDY    67  34  29 W10       29.94S
MOSINEE        SUNNY     64  34  32 W6        29.97F
MARSHFIELD     SUNNY     68  35  29 W10       29.95F
STEVENS POINT  SUNNY     64  31  29 W9        29.96F
WAUPACA        SUNNY     69  25  18 W7        29.95F
WAUTOMA        SUNNY     67  27  22 SW3       29.96F
WISC RAPIDS    SUNNY     69  22  16 NW9       29.97F
CAMP DOUGLAS     N/A     69  34  27 W8        29.96F
$$

WIZ011>013-019>022-031-037>040-048>050-052300-
NORTHEAST WISCONSIN

CITY           SKY/WX    TMP DP  RH WIND       PRES   REMARKS
ANTIGO         SUNNY     65  36  33 SW5       29.94F
SHAWANO        SUNNY     70  27  19 W8        29.93F
OCONTO         SUNNY     60  38  42 S8        29.94S
STURGEON BAY   SUNNY     57  39  51 SE7       29.97F
GREEN BAY      SUNNY     65  39  38 SW7       29.95F
MANITOWOC      SUNNY     52  39  61 MISG      29.98F
APPLETON       MOSUNNY   64  30  27 VRB5      29.95F
CLINTONVILLE   SUNNY     68  27  21 W9        29.93F
OSHKOSH        SUNNY     62  40  44 E6        29.96F
$$

WIZ032>034-041-042-053>061-052300-
SOUTHWEST WISCONSIN

CITY           SKY/WX    TMP DP  RH WIND       PRES   REMARKS
LA CROSSE      SUNNY     71  37  28 MISG      29.97F
SPARTA         SUNNY     68  34  28 W7        29.98S
VIROQUA        SUNNY     66  33  29 NW6       29.98F
BOSCOBEL       SUNNY     70  34  26 NW9       29.99F
PRAIRIE DU CHI SUNNY     68  28  22 NW5       29.99F
PLATTEVILLE    SUNNY     65  35  32 W5        29.99F
$$

WIZ056-057-062-063-064-067-068-052300-
SOUTH CENTRAL WISCONSIN

CITY           SKY/WX    TMP DP  RH WIND       PRES   REMARKS
REEDSBURG      SUNNY     66  34  31 W9        29.97F
BARABOO/DELLS  SUNNY     67  26  21 W9        29.97S
LONE ROCK      SUNNY     68  34  28 NW5       29.98F
MINERAL POINT  SUNNY     68  30  24 W6        29.99F
MADISON        MOSUNNY   66  36  32 N6        29.97F
MIDDLETON      SUNNY     67  33  28 CALM      29.98F
WATERTOWN      SUNNY     64  38  37 NW9       29.96F
MONROE         SUNNY     64  36  34 N5        29.98F
JANESVILLE     SUNNY     66  36  32 N6        29.97F
$$

WIZ051-052-058>065-066-070>072-052300-
SOUTHEAST WISCONSIN

CITY           SKY/WX    TMP DP  RH WIND       PRES   REMARKS
MILWAUKEE      MOSUNNY   52  38  58 E8        29.99S
WAUKESHA       SUNNY     63  36  36 NW9       29.98S
MILWAUKEE/TIMM SUNNY     57  36  44 E7        29.98S
RACINE         SUNNY     54  39  57 NE8       29.99F
BURLINGTON     SUNNY     64  33  31 NW8       29.97S
KENOSHA        SUNNY     55  40  56 E9        29.98S
FOND DU LAC    SUNNY     63  40  42 NE5       29.96F
SHEBOYGAN      SUNNY     57  41  55 SE6       29.97S
WEST BEND      SUNNY     63  32  31 N12       29.97S
JUNEAU         SUNNY     63  36  36 N3        29.97F
$$

LSZ147-162-052300-
LAKE SUPERIOR

STATION/POSITION TIME  TEMP    WIND        PRES    WAVE
                       AIR SEA DIR/SP/G            HT/PER
                 (UTC) (F)     (DEG/KT/KT) (MB)    (FT/S)
W MID LAKE BUOY  2150   44 37  300/  2/  6 1011.4F   0
DEVILS ISLAND    2200   59     220/ 11/ 13 1010.3F
PORT WING        2000          220/ 11/ 16 1011.5
SAXON HARBOR     2140   73     220/  8/ 17 1010.5F
$$

LMZ867-665-643>646-052300-
LAKE MICHIGAN

STATION/POSITION TIME  TEMP    WIND        PRES    WAVE
                       AIR SEA DIR/SP/G            HT/PER
                 (UTC) (F)     (DEG/KT/KT) (MB)    (FT/S)
CHAMBERS ISLAND  2100   56     160/  8/ 11 1014.6F
N MID LAKE BUOY  2150   41 39  190/  8/  8 1014.5F   0
NORTHPORT PIER   2100   47     150/  7/ 10 1014.9F
ALGOMA LAKESHORE 2115          160/  7/  8   N/A
KEWAUNEE LAKESHO 2100   45     100/  5/  6 1014.6F
SHEBOYGAN LAKESH 2200   44     160/  3/  4 1015.9F
PORT WASHINGTON  2140   48      60/  3/  4 1016.3F
S MID LAKE BUOY  2150   43 40   30/  8/  8 1015.2F   3/ 6
KENOSHA   LAKESH 2200   45      60/  2/  3 1015.6S
$$

TC  - TEMPERATURE IN CELSIUS
VSB - VISIBILITY IN STATUTE MILES
WCI - WIND CHILL INDEX
HX  - HEAT INDEX




USA.gov is the U.S. government's official web portal to all federal, state and local government web resources and services.